Powrót do katalogu

SINOD-D 1

AktywnyKrótkofalarstwoVLEO
NORAD 40974·PAYLOAD·🇺🇸 United States

Wystrzelony Oct 8, 2015 z Vandenberg Space Force Base

Loading…

Następne Przeloty (najbliższe 24 godziny)

TLE

ŚwieżeSource: Space-Track

Epoka: Sep 14, 2026, 08:20 UTC

1 40974U 15058L   26257.34759195  .00012041  00000-0  54292-3 0  9991
2 40974  64.7568 244.9182 0086060   9.1248 351.1415 15.18051312129140

Śledź SINOD-D 1 w czasie rzeczywistym z AllMySat

Download on the App Store